Location: Pedro
(43.9050°N, 104.3408°W)
Time: 20:21:18
(UTC+00:00)

ISS - Visible Passes

Search period start: 28 May 2023 00:00
Search period end: 07 June 2023 00:00
Orbit: 412 x 419 km, 51.6° (Epoch: 28 May)

Date Brightness Start Highest point End Pass type
(mag) Time Alt. Az. Time Alt. Az. Time Alt. Az.
28 May -3.8 03:45:24 10° WNW 03:48:46 88° NNE 03:50:53 21° ESE visible
28 May -1.0 05:23:26 10° WSW 05:23:46 11° WSW 05:23:46 11° WSW visible
29 May -3.3 02:56:50 10° NW 03:00:09 57° NNE 03:03:27 10° ESE visible
29 May -2.1 04:34:01 10° W 04:36:39 22° SW 04:36:58 21° SW visible
30 May -2.8 03:45:04 10° WNW 03:48:10 35° SW 03:50:11 18° SSE visible
01 Jun -1.3 03:45:25 10° W 03:47:16 14° SW 03:49:08 10° SSW visible
